Weather in Wejherowo

Poland     54°36′44″N   18°11′40″E
temp.,
°C
wind,
m/s
gust,
m/s
humid.,
%
clouds,
%
prec.,
mm/h
press.,
hPa
HPBL,
m
17 october, sun
sun1723:00+9wsw51180100 0.3 1017882
02:00+8wsw51085100 0.6 1016722
05:00+8wsw51184100 0.1 1016565
08:00+8wsw61277100 0.4 1016774
11:00+9wsw71166100 0.0 1016822
14:00+11w6959100 0.0 10161054
17:00+10wsw5965100 0.0 1015965
20:00+9wnw5983100 0.1 1016775
18 october, mon
mon1823:00+8w41083100 0.3 1017396
02:00+7w389087 0.4 1018285
05:00+6w36895 0.0 1019132
08:00+5w25904 0.0 1020107
11:00+10nw456721 0.0 1022903
14:00+11nw45539 0.0 10221424
17:00+8n3561100 0.0 1023323
20:00+6nne1163100 0.0 102413
19 october, tue
tue1923:00+6ese0162100 0.0 102610
02:00+5sse226286 0.0 102613
05:00+5sse366599 0.0 1025134
08:00+6sse41066100 0.0 1024310
11:00+7s51182100 0.1 1023353
14:00+12ssw5868100 0.1 1020565
17:00+12ssw51167100 0.0 1018504
20:00+12ssw51267100 0.0 1017496
20 october, wed
wed2023:00+12sw51169100 0.0 1015455
02:00+11sw51276100 0.0 1013404
05:00+11ssw61393100 1.2 1010432
08:00+12sw81696100 4.0 1008637
11:00+15sw81685100 0.0 1007597
14:00+16sw81774100 0.0 1005740
17:00+16sw8177213 0.0 1003630
20:00+16sw9186882 0.1 1002916
21 october, thu
thu2123:00+15sw8177099 0.0 1000781
02:00+14sw8177391 0.0 999772
05:00+14sw81776100 0.0 997812
08:00+15sw102071100 0.0 9941404
11:00+15wsw1222585 0.9 9952137
14:00+12wsw12226290 0.9 9961673
17:00+12wsw91664100 0.0 9981508
20:00+12sw71665100 0.0 9991559